Weather Roundup
Issued by NWS Chicago, IL

Home | Current Version | Previous Version | Graphics & Text | Print | Product List | Glossary On
Versions: 1 2 3 4 5 6 7 8 9 10 11 12 13 14 15 16 17 18 19 20 21 22 23 24 25 26 27 28 29 30 31 32 33 34 35 36 37 38 39 40 41 42 43 44 45 46 47 48 49 50
000
NZUS59 KLOT 291012
HRRLOT

CHICAGO AREA WEATHER ROUNDUP
NATIONAL WEATHER SERVICE CHICAGO/ROMEOVILLE IL
500 AM CDT FRI MAY 29 2015

NOTE: "FAIR" INDICATES FEW OR NO CLOUDS BELOW 12,000 FEET WITH NO
SIGNIFICANT WEATHER AND/OR OBSTRUCTIONS TO VISIBILITY.

* THESE STATIONS ARE NOT UNDER NWS QUALITY CONTROL. THEY ALSO MAY NOT
  REPORT WEATHER SUCH AS PRECIPITATION OR FOG.

ILZ005-006-012>014-019>023-291100-
NORTHEAST ILLINOIS

CITY           SKY/WX    TMP DP  RH WIND       PRES   REMARKS
OHARE          CLOUDY    65  60  84 SE6       30.01F
MIDWAY         CLOUDY    72  63  73 SE6       30.02F
AURORA         CLOUDY    66  58  75 SE7       30.02F
LANSING*       CLOUDY    66  62  85 S3        30.04F
JOLIET*        CLOUDY    69  64  83 S3        30.02F
WAUKEGAN       CLOUDY    58  55  90 CALM      30.01F
DUPAGE AIRPORT CLOUDY    66  59  78 SE6       30.01F
WHEELING       CLOUDY    65  59  81 SE6       30.03F
KANKAKEE*      MOCLDY    69  64  84 SE8       30.04F
MORRIS*        CLOUDY    67  62  83 S5        30.01S
LEWIS AIRPORT* CLOUDY    66  61  82 S7        30.02F
NORTHERLY IS     N/A     68  59  73 E2          N/A
$$

WIZ051-052-058>065-066-070>072-291100-
SOUTHEAST WISCONSIN

CITY           SKY/WX    TMP DP  RH WIND       PRES   REMARKS
MILWAUKEE      CLOUDY    59  53  80 SE5       30.01F
KENOSHA*       CLOUDY    63  57  81 S5        30.02F
RACINE*        MOCLDY    59  53  80 S6        30.03F
BURLINGTON     MOCLDY    56  54  94 CALM      30.01F
WAUKESHA       CLOUDY    61  54  77 S6        30.02F
WEST BEND      CLOUDY    63  54  72 CALM      30.01F
$$

INZ001>003-010>013-019-020-291100-
NORTHWEST INDIANA

CITY           SKY/WX    TMP DP  RH WIND       PRES   REMARKS
GARY*          MOCLDY    68  64  88 SE8       30.05F
MICHIGAN CITY* NOT AVBL
RENSSELAER*    NOT AVBL
VALPARAISO     PTCLDY    64  60  87 E3        30.07F
$$

LMZ740>746-291100-
SOUTHERN LAKE MICHIGAN

STATION/POSITION TIME  SKY/WX   TEMP WIND        PRES    VSBY
                                AIR  DIR/SP/G
                 (UTC)          (F)  (DEG/KT/KT) (MB)    (MI)
HARRISON CRIB    0900            68  170/ 11/ 12   N/A
BURNHAM HARBOR   1000            63  140/  4/  7   N/A
CALUMET HARBOR   0918                170/  6/  7   N/A
BURNS HARBOR     0900            71  160/  7/ 11 1018.6F
MICHIGAN CITY    0900            70  130/  9/ 11   N/A
$$

ABBREVIATIONS USED IN REMARKS
   TC - TEMPERATURE IN CELSIUS
  WCI - WIND CHILL INDEX
   HX - HEAT INDEX
  VSB - VISIBILITY
$$


USA.gov is the U.S. government's official web portal to all federal, state and local government web resources and services.